Hourly Data Report for July 19, 2021

FLIN FLON
MANITOBA
Current Station Operator: ECCC - MSC

54°41'00.000" N
101°41'00.000" W
303.90 m
5050919
71954
WFO

Download Data

Hourly Data (July 2021)
Hourly Data Report for July 19, 2021
TIME
LST
Temp Definition
°C
Dew Point Definition
°C
Rel Hum Definition
%
Precip. Amount Definition
mm

Wind Dir Definition
10's deg

Wind Spd Definition
km/h
Visibility Definition
km
Stn Press Definition
kPa
Hmdx Definition


Wind Chill Definition


Weather Definition


00:00 11.4 10.1 92 0.0 7 11   98.82     LegendNANA
01:00 11.3 9.9 91 0.0 6 8   98.85     LegendNANA
02:00 11.3 9.6 89 0.0 6 10   98.87     LegendNANA
03:00 11.4 9.6 89 0.0 7 10   98.89     LegendNANA
04:00 11.4 9.6 89 0.0 5 9   98.91     LegendNANA
05:00 11.3 9.4 88 0.0 5 9   98.95     LegendNANA
06:00 11.3 9.1 87 0.0 8 10   98.97     LegendNANA
07:00 11.7 8.8 82 0.0 8 10   98.99     LegendNANA
08:00 12.4 8.5 77 0.0 9 9   99.00     LegendNANA
09:00 13.3 8.8 74 0.0 5 7   99.02     LegendNANA
10:00 14.9 8.1 64 0.0 6 9   98.99     LegendNANA
11:00 16.4 7.3 55 0.0 13 11   98.98     LegendNANA
12:00 17.9 7.2 50 0.0 14 10   98.95     LegendNANA
13:00 18.3 7.8 50 0.0 21 9   98.92     LegendNANA
14:00 18.8 7.1 46 0.0 24 6   98.88     LegendNANA
15:00 19.8 7.8 46 0.0 19 7   98.87     LegendNANA
16:00 20.4 8.9 48 0.0 21 10   98.85     LegendNANA
17:00 20.8 8.6 45 0.0 22 10   98.84     LegendNANA
18:00 20.6 8.7 46 0.0 21 8   98.83     LegendNANA
19:00 20.3 9.9 51 0.0 21 8   98.79     LegendNANA
20:00 19.7 10.7 56 0.0 23 2   98.77     LegendNANA
21:00 16.7 10.6 67 0.0   0   98.78     LegendNANA
22:00 14.4 10.5 77 0.0 10 3   98.78     LegendNANA
23:00 13.4 10.0 80 0.0   0   98.78     LegendNANA

Notes on Data Quality.

Legend

  • E = Estimated
  • M = Missing
  • NA = Not Available*
  • [empty] = Indicates an unobserved value
Date modified: